﻿測定場所 (Monitoring sites),日付 (Measurement date),時間 (Measurement time),線量率 最大値 (max) μGy/h,線量率 最小値 (min) μGy/h,線量率 平均値 (average) μGy/h,
新宿 (Shinjuku),2018-04-29,23:01～24:00,0.0396,0.0356,0.0371,
新宿 (Shinjuku),2018-04-29,22:01～23:00,0.0404,0.0333,0.0370,
新宿 (Shinjuku),2018-04-29,21:01～22:00,0.0408,0.0352,0.0372,
新宿 (Shinjuku),2018-04-29,20:01～21:00,0.0410,0.0348,0.0368,
新宿 (Shinjuku),2018-04-29,19:01～20:00,0.0402,0.0347,0.0371,
新宿 (Shinjuku),2018-04-29,18:01～19:00,0.0402,0.0340,0.0368,
新宿 (Shinjuku),2018-04-29,17:01～18:00,0.0407,0.0352,0.0370,
新宿 (Shinjuku),2018-04-29,16:01～17:00,0.0400,0.0353,0.0371,
新宿 (Shinjuku),2018-04-29,15:01～16:00,0.0399,0.0348,0.0372,
新宿 (Shinjuku),2018-04-29,14:01～15:00,0.0396,0.0342,0.0368,
新宿 (Shinjuku),2018-04-29,13:01～14:00,0.0399,0.0349,0.0369,
新宿 (Shinjuku),2018-04-29,12:01～13:00,0.0403,0.0343,0.0369,
新宿 (Shinjuku),2018-04-29,11:01～12:00,0.0413,0.0348,0.0369,
新宿 (Shinjuku),2018-04-29,10:01～11:00,0.0394,0.0348,0.0371,
新宿 (Shinjuku),2018-04-29,09:01～10:00,0.0405,0.0355,0.0374,
新宿 (Shinjuku),2018-04-29,08:01～09:00,0.0413,0.0359,0.0376,
新宿 (Shinjuku),2018-04-29,07:01～08:00,0.0403,0.0359,0.0375,
新宿 (Shinjuku),2018-04-29,06:01～07:00,0.0413,0.0355,0.0375,
新宿 (Shinjuku),2018-04-29,05:01～06:00,0.0399,0.0356,0.0374,
新宿 (Shinjuku),2018-04-29,04:01～05:00,0.0404,0.0345,0.0374,
新宿 (Shinjuku),2018-04-29,03:01～04:00,0.0414,0.0344,0.0375,
新宿 (Shinjuku),2018-04-29,02:01～03:00,0.0397,0.0349,0.0370,
新宿 (Shinjuku),2018-04-29,01:01～02:00,0.0421,0.0346,0.0373,
新宿 (Shinjuku),2018-04-29,00:01～01:00,0.0411,0.0353,0.0373,
新宿 (Shinjuku),2018-04-28,23:01～24:00,0.0406,0.0353,0.0372,
新宿 (Shinjuku),2018-04-28,22:01～23:00,0.0397,0.0349,0.0369,
新宿 (Shinjuku),2018-04-28,21:01～22:00,0.0395,0.0346,0.0369,
新宿 (Shinjuku),2018-04-28,20:01～21:00,0.0403,0.0347,0.0369,
新宿 (Shinjuku),2018-04-28,19:01～20:00,0.0412,0.0347,0.0374,
新宿 (Shinjuku),2018-04-28,18:01～19:00,0.0403,0.0349,0.0370,
新宿 (Shinjuku),2018-04-28,17:01～18:00,0.0402,0.0347,0.0373,
新宿 (Shinjuku),2018-04-28,16:01～17:00,0.0411,0.0357,0.0373,
新宿 (Shinjuku),2018-04-28,15:01～16:00,0.0412,0.0350,0.0373,
新宿 (Shinjuku),2018-04-28,14:01～15:00,0.0418,0.0347,0.0371,
新宿 (Shinjuku),2018-04-28,13:01～14:00,0.0408,0.0349,0.0369,
新宿 (Shinjuku),2018-04-28,12:01～13:00,0.0401,0.0343,0.0367,
新宿 (Shinjuku),2018-04-28,11:01～12:00,0.0394,0.0347,0.0367,
新宿 (Shinjuku),2018-04-28,10:01～11:00,0.0397,0.0350,0.0367,
新宿 (Shinjuku),2018-04-28,09:01～10:00,0.0398,0.0356,0.0373,
新宿 (Shinjuku),2018-04-28,08:01～09:00,0.0404,0.0346,0.0372,
新宿 (Shinjuku),2018-04-28,07:01～08:00,0.0410,0.0350,0.0373,
新宿 (Shinjuku),2018-04-28,06:01～07:00,0.0395,0.0349,0.0372,
新宿 (Shinjuku),2018-04-28,05:01～06:00,0.0412,0.0350,0.0371,
新宿 (Shinjuku),2018-04-28,04:01～05:00,0.0419,0.0351,0.0372,
新宿 (Shinjuku),2018-04-28,03:01～04:00,0.0410,0.0349,0.0370,
新宿 (Shinjuku),2018-04-28,02:01～03:00,0.0408,0.0342,0.0373,
新宿 (Shinjuku),2018-04-28,01:01～02:00,0.0399,0.0346,0.0373,
新宿 (Shinjuku),2018-04-28,00:01～01:00,0.0411,0.0350,0.0374,
新宿 (Shinjuku),2018-04-27,23:01～24:00,0.0421,0.0354,0.0376,
新宿 (Shinjuku),2018-04-27,22:01～23:00,0.0414,0.0351,0.0367,
新宿 (Shinjuku),2018-04-27,21:01～22:00,0.0398,0.0349,0.0366,
新宿 (Shinjuku),2018-04-27,20:01～21:00,0.0416,0.0337,0.0370,
新宿 (Shinjuku),2018-04-27,19:01～20:00,0.0415,0.0348,0.0367,
新宿 (Shinjuku),2018-04-27,18:01～19:00,0.0400,0.0350,0.0369,
新宿 (Shinjuku),2018-04-27,17:01～18:00,0.0399,0.0337,0.0367,
新宿 (Shinjuku),2018-04-27,16:01～17:00,0.0396,0.0345,0.0369,
新宿 (Shinjuku),2018-04-27,15:01～16:00,0.0408,0.0348,0.0370,
新宿 (Shinjuku),2018-04-27,14:01～15:00,0.0412,0.0341,0.0368,
新宿 (Shinjuku),2018-04-27,13:01～14:00,0.0400,0.0340,0.0368,
新宿 (Shinjuku),2018-04-27,12:01～13:00,0.0399,0.0343,0.0370,
新宿 (Shinjuku),2018-04-27,11:01～12:00,0.0412,0.0346,0.0366,
新宿 (Shinjuku),2018-04-27,10:01～11:00,0.0417,0.0346,0.0368,
新宿 (Shinjuku),2018-04-27,09:01～10:00,0.0397,0.0344,0.0369,
新宿 (Shinjuku),2018-04-27,08:01～09:00,0.0405,0.0350,0.0368,
新宿 (Shinjuku),2018-04-27,07:01～08:00,0.0408,0.0349,0.0370,
新宿 (Shinjuku),2018-04-27,06:01～07:00,0.0402,0.0348,0.0371,
新宿 (Shinjuku),2018-04-27,05:01～06:00,0.0410,0.0353,0.0371,
新宿 (Shinjuku),2018-04-27,04:01～05:00,0.0401,0.0340,0.0367,
新宿 (Shinjuku),2018-04-27,03:01～04:00,0.0398,0.0343,0.0365,
新宿 (Shinjuku),2018-04-27,02:01～03:00,0.0404,0.0350,0.0367,
新宿 (Shinjuku),2018-04-27,01:01～02:00,0.0413,0.0344,0.0369,
新宿 (Shinjuku),2018-04-27,00:01～01:00,0.0401,0.0334,0.0367,
新宿 (Shinjuku),2018-04-26,23:01～24:00,0.0397,0.0344,0.0368,
新宿 (Shinjuku),2018-04-26,22:01～23:00,0.0402,0.0353,0.0373,
新宿 (Shinjuku),2018-04-26,21:01～22:00,0.0399,0.0353,0.0371,
新宿 (Shinjuku),2018-04-26,20:01～21:00,0.0411,0.0352,0.0367,
新宿 (Shinjuku),2018-04-26,19:01～20:00,0.0393,0.0348,0.0366,
新宿 (Shinjuku),2018-04-26,18:01～19:00,0.0395,0.0349,0.0368,
新宿 (Shinjuku),2018-04-26,17:01～18:00,0.0420,0.0344,0.0366,
新宿 (Shinjuku),2018-04-26,16:01～17:00,0.0389,0.0348,0.0366,
新宿 (Shinjuku),2018-04-26,15:01～16:00,0.0400,0.0347,0.0367,
新宿 (Shinjuku),2018-04-26,14:01～15:00,0.0388,0.0347,0.0364,
新宿 (Shinjuku),2018-04-26,13:01～14:00,0.0401,0.0336,0.0368,
新宿 (Shinjuku),2018-04-26,12:01～13:00,0.0390,0.0341,0.0364,
新宿 (Shinjuku),2018-04-26,11:01～12:00,0.0392,0.0351,0.0366,
新宿 (Shinjuku),2018-04-26,10:01～11:00,0.0397,0.0350,0.0369,
新宿 (Shinjuku),2018-04-26,09:01～10:00,0.0399,0.0344,0.0369,
新宿 (Shinjuku),2018-04-26,08:01～09:00,0.0388,0.0347,0.0365,
新宿 (Shinjuku),2018-04-26,07:01～08:00,0.0386,0.0340,0.0364,
新宿 (Shinjuku),2018-04-26,06:01～07:00,0.0391,0.0342,0.0366,
新宿 (Shinjuku),2018-04-26,05:01～06:00,0.0393,0.0349,0.0366,
新宿 (Shinjuku),2018-04-26,04:01～05:00,0.0397,0.0347,0.0365,
新宿 (Shinjuku),2018-04-26,03:01～04:00,0.0391,0.0348,0.0366,
新宿 (Shinjuku),2018-04-26,02:01～03:00,0.0408,0.0348,0.0367,
新宿 (Shinjuku),2018-04-26,01:01～02:00,0.0398,0.0340,0.0367,
新宿 (Shinjuku),2018-04-26,00:01～01:00,0.0388,0.0346,0.0363,
新宿 (Shinjuku),2018-04-25,23:01～24:00,0.0399,0.0347,0.0365,
新宿 (Shinjuku),2018-04-25,22:01～23:00,0.0404,0.0350,0.0369,
新宿 (Shinjuku),2018-04-25,21:01～22:00,0.0402,0.0345,0.0370,
新宿 (Shinjuku),2018-04-25,20:01～21:00,0.0402,0.0353,0.0371,
新宿 (Shinjuku),2018-04-25,19:01～20:00,0.0410,0.0352,0.0372,
新宿 (Shinjuku),2018-04-25,18:01～19:00,0.0411,0.0343,0.0371,
新宿 (Shinjuku),2018-04-25,17:01～18:00,0.0407,0.0353,0.0371,
新宿 (Shinjuku),2018-04-25,16:01～17:00,0.0401,0.0349,0.0371,
新宿 (Shinjuku),2018-04-25,15:01～16:00,0.0417,0.0348,0.0372,
新宿 (Shinjuku),2018-04-25,14:01～15:00,0.0405,0.0345,0.0371,
新宿 (Shinjuku),2018-04-25,13:01～14:00,0.0424,0.0355,0.0383,
新宿 (Shinjuku),2018-04-25,12:01～13:00,0.0449,0.0357,0.0407,
新宿 (Shinjuku),2018-04-25,11:01～12:00,0.0492,0.0407,0.0447,
新宿 (Shinjuku),2018-04-25,10:01～11:00,0.0518,0.0437,0.0474,
新宿 (Shinjuku),2018-04-25,09:01～10:00,0.0514,0.0447,0.0485,
新宿 (Shinjuku),2018-04-25,08:01～09:00,0.0509,0.0425,0.0463,
新宿 (Shinjuku),2018-04-25,07:01～08:00,0.0465,0.0376,0.0420,
新宿 (Shinjuku),2018-04-25,06:01～07:00,0.0442,0.0361,0.0400,
新宿 (Shinjuku),2018-04-25,05:01～06:00,0.0426,0.0355,0.0383,
新宿 (Shinjuku),2018-04-25,04:01～05:00,0.0423,0.0350,0.0372,
新宿 (Shinjuku),2018-04-25,03:01～04:00,0.0401,0.0354,0.0370,
新宿 (Shinjuku),2018-04-25,02:01～03:00,0.0411,0.0340,0.0368,
新宿 (Shinjuku),2018-04-25,01:01～02:00,0.0404,0.0355,0.0368,
新宿 (Shinjuku),2018-04-25,00:01～01:00,0.0406,0.0348,0.0369,
新宿 (Shinjuku),2018-04-24,23:01～24:00,0.0414,0.0357,0.0375,
新宿 (Shinjuku),2018-04-24,22:01～23:00,0.0409,0.0353,0.0374,
新宿 (Shinjuku),2018-04-24,21:01～22:00,0.0412,0.0354,0.0376,
新宿 (Shinjuku),2018-04-24,20:01～21:00,0.0415,0.0345,0.0378,
新宿 (Shinjuku),2018-04-24,19:01～20:00,0.0406,0.0351,0.0368,
新宿 (Shinjuku),2018-04-24,18:01～19:00,0.0411,0.0351,0.0371,
新宿 (Shinjuku),2018-04-24,17:01～18:00,0.0441,0.0359,0.0387,
新宿 (Shinjuku),2018-04-24,16:01～17:00,0.0432,0.0366,0.0400,
新宿 (Shinjuku),2018-04-24,15:01～16:00,0.0427,0.0351,0.0384,
新宿 (Shinjuku),2018-04-24,14:01～15:00,0.0414,0.0346,0.0378,
新宿 (Shinjuku),2018-04-24,13:01～14:00,0.0400,0.0341,0.0365,
新宿 (Shinjuku),2018-04-24,12:01～13:00,0.0395,0.0332,0.0360,
新宿 (Shinjuku),2018-04-24,11:01～12:00,0.0398,0.0341,0.0372,
新宿 (Shinjuku),2018-04-24,10:01～11:00,0.0409,0.0356,0.0372,
新宿 (Shinjuku),2018-04-24,09:01～10:00,0.0411,0.0347,0.0373,
新宿 (Shinjuku),2018-04-24,08:01～09:00,0.0397,0.0355,0.0372,
新宿 (Shinjuku),2018-04-24,07:01～08:00,0.0401,0.0350,0.0371,
新宿 (Shinjuku),2018-04-24,06:01～07:00,0.0406,0.0348,0.0373,
新宿 (Shinjuku),2018-04-24,05:01～06:00,0.0408,0.0348,0.0369,
新宿 (Shinjuku),2018-04-24,04:01～05:00,0.0409,0.0344,0.0370,
新宿 (Shinjuku),2018-04-24,03:01～04:00,0.0415,0.0340,0.0369,
新宿 (Shinjuku),2018-04-24,02:01～03:00,0.0404,0.0344,0.0369,
新宿 (Shinjuku),2018-04-24,01:01～02:00,0.0396,0.0356,0.0369,
新宿 (Shinjuku),2018-04-24,00:01～01:00,0.0394,0.0347,0.0369,
新宿 (Shinjuku),2018-04-23,23:01～24:00,0.0402,0.0348,0.0369,
新宿 (Shinjuku),2018-04-23,22:01～23:00,0.0406,0.0345,0.0369,
新宿 (Shinjuku),2018-04-23,21:01～22:00,0.0405,0.0344,0.0370,
新宿 (Shinjuku),2018-04-23,20:01～21:00,0.0417,0.0344,0.0370,
新宿 (Shinjuku),2018-04-23,19:01～20:00,0.0411,0.0353,0.0371,
新宿 (Shinjuku),2018-04-23,18:01～19:00,0.0402,0.0357,0.0373,
新宿 (Shinjuku),2018-04-23,17:01～18:00,0.0395,0.0350,0.0371,
新宿 (Shinjuku),2018-04-23,16:01～17:00,0.0404,0.0349,0.0371,
新宿 (Shinjuku),2018-04-23,15:01～16:00,0.0389,0.0345,0.0366,
新宿 (Shinjuku),2018-04-23,14:01～15:00,0.0393,0.0348,0.0369,
新宿 (Shinjuku),2018-04-23,13:01～14:00,0.0404,0.0351,0.0372,
新宿 (Shinjuku),2018-04-23,12:01～13:00,0.0418,0.0337,0.0372,
新宿 (Shinjuku),2018-04-23,11:01～12:00,0.0415,0.0344,0.0374,
新宿 (Shinjuku),2018-04-23,10:01～11:00,0.0404,0.0355,0.0375,
新宿 (Shinjuku),2018-04-23,09:01～10:00,0.0411,0.0351,0.0373,
新宿 (Shinjuku),2018-04-23,08:01～09:00,0.0400,0.0353,0.0370,
新宿 (Shinjuku),2018-04-23,07:01～08:00,0.0395,0.0350,0.0367,
新宿 (Shinjuku),2018-04-23,06:01～07:00,0.0399,0.0347,0.0368,
新宿 (Shinjuku),2018-04-23,05:01～06:00,0.0404,0.0352,0.0372,
新宿 (Shinjuku),2018-04-23,04:01～05:00,0.0409,0.0353,0.0373,
新宿 (Shinjuku),2018-04-23,03:01～04:00,0.0405,0.0344,0.0369,
新宿 (Shinjuku),2018-04-23,02:01～03:00,0.0402,0.0352,0.0371,
新宿 (Shinjuku),2018-04-23,01:01～02:00,0.0407,0.0349,0.0370,
新宿 (Shinjuku),2018-04-23,00:01～01:00,0.0406,0.0349,0.0371,
